Total_Precipitation_Accumulation
3.96 4.04 4.09 4.06 3.77 4.09 4.56 4.86 4.43 4.72 4.71 4.22 3.89 3.80 3.88 4.04 4.17 4.42 4.43 4.65 4.57 4.69 5.30 5.70 5.33 4.92 4.63 4.25 3.72 3.44 3.36 3.12 2.81 2.39 2.08 2.06 2.02 1.94 1.85 1.83 1.81 1.71 1.63
4.56 4.51 4.33 4.27 3.87 3.79 4.14 4.37 4.36 4.87 4.69 4.36 3.69 3.54 3.63 4.01 4.32 4.39 4.46 4.99 4.94 4.74 4.93 5.58 5.95 5.83 5.46 5.13 4.57 4.18 3.99 3.74 3.45 2.93 2.45 2.28 2.17 2.06 2.01 2.06 2.15 2.00 1.74
5.04 4.84 4.59 4.18 3.92 3.90 4.14 4.12 4.18 4.34 4.11 3.97 3.70 3.74 3.79 3.98 4.13 4.35 4.59 4.97 4.83 4.45 4.46 4.86 5.69 6.20 6.39 6.20 5.77 5.47 4.96 4.26 3.76 3.20 2.75 2.44 2.27 2.13 2.05 2.12 2.19 2.18 2.00
4.68 4.81 4.49 3.98 3.98 3.90 3.99 4.21 4.09 4.16 4.13 4.09 4.04 3.81 3.83 3.92 3.67 3.83 4.07 4.27 4.54 4.10 4.25 4.51 4.98 5.59 6.53 7.31 7.53 7.33 6.58 5.31 4.28 3.75 3.35 2.88 2.54 2.27 2.09 2.12 2.24 2.16 1.90
4.38 4.64 4.39 4.15 3.99 3.93 3.85 3.63 4.14 4.28 4.31 4.30 3.94 3.86 3.51 3.27 3.14 3.05 3.17 3.19 3.59 3.83 4.10 4.22 4.66 5.11 6.11 7.44 8.42 8.73 8.16 6.76 5.61 4.82 4.23 3.63 3.16 2.69 2.28 2.11 2.03 1.90 1.74
4.00 4.26 3.99 3.91 3.99 4.18 4.06 4.14 4.51 4.49 4.13 4.23 3.74 3.59 3.44 3.04 2.95 2.90 2.73 2.78 2.87 2.98 3.56 4.21 4.95 4.64 5.10 6.19 7.43 8.41 8.95 8.28 6.87 5.73 4.88 4.29 3.83 3.33 2.74 2.44 2.26 2.11 1.99
3.69 4.08 3.72 4.08 3.94 3.90 3.79 3.80 4.07 4.08 3.68 3.88 4.26 3.84 3.24 2.84 2.78 2.65 2.64 2.75 2.61 2.80 3.34 4.05 4.62 4.77 4.51 4.53 5.19 6.11 7.50 8.18 7.49 6.34 5.42 4.82 4.34 3.90 3.27 2.88 2.65 2.41 2.27
3.79 3.52 3.76 3.56 3.54 3.76 3.56 3.55 3.83 3.77 3.39 3.73 4.04 4.18 3.63 3.36 2.82 2.18 2.41 2.62 2.72 3.02 3.07 3.23 3.90 4.45 4.34 4.65 4.03 4.00 5.30 6.72 7.49 7.15 6.21 5.35 4.67 4.09 3.60 3.29 2.92 2.51 2.29
3.92 3.70 3.54 3.39 3.41 3.22 3.41 3.50 3.57 3.70 3.67 3.57 3.63 4.03 3.77 3.39 2.90 2.35 2.18 2.47 2.91 3.28 3.19 3.21 3.23 3.64 3.90 4.33 4.18 3.87 3.84 4.56 5.91 7.08 7.03 6.11 4.98 4.17 3.76 3.74 3.49 2.99 2.62
4.10 3.79 3.53 3.32 3.18 2.98 3.29 2.97 3.11 3.47 3.73 3.40 3.35 3.28 3.27 3.46 3.37 2.96 2.44 2.26 2.52 2.82 2.89 2.76 2.88 3.25 3.57 3.89 3.96 3.89 3.58 3.61 4.38 5.66 6.46 6.37 5.64 4.80 4.18 4.17 4.44 4.21 3.62
3.86 3.47 3.35 3.28 3.11 2.90 2.94 2.94 3.30 3.30 3.27 3.20 3.27 3.23 3.36 3.59 3.35 3.20 2.88 2.75 2.82 2.64 2.50 2.51 2.62 2.87 3.23 3.61 3.88 3.74 3.97 3.75 3.72 4.15 4.87 5.30 5.41 5.16 4.77 4.84 5.46 5.65 5.24
3.48 3.16 3.02 3.15 3.06 2.94 2.98 2.97 3.07 3.12 3.26 3.32 3.32 3.32 3.41 3.41 3.44 3.62 3.23 3.04 3.03 2.67 2.49 2.51 2.63 2.80 3.03 3.22 3.15 3.43 3.68 3.88 3.76 3.73 3.92 4.22 4.52 4.81 5.00 5.25 5.77 6.21 6.40
2.91 2.86 2.87 3.00 2.91 2.97 3.01 3.11 3.14 3.11 3.22 3.26 3.19 3.28 3.38 3.33 3.46 3.64 3.55 3.16 2.90 2.62 2.68 2.61 2.55 2.80 2.91 3.25 3.47 3.42 3.18 3.34 3.31 3.33 3.37 3.41 3.57 3.95 4.38 4.66 5.23 5.82 6.29
2.46 2.58 2.79 2.79 2.68 2.68 2.73 3.20 3.19 3.20 3.31 3.22 3.03 3.39 3.41 3.17 3.40 3.58 3.72 3.81 3.38 3.10 3.17 3.12 2.79 2.76 3.00 3.23 3.53 3.38 3.05 3.12 2.85 2.78 2.79 2.85 2.91 3.06 3.34 3.61 3.90 4.24 4.61
2.40 2.48 2.60 2.84 2.90 2.95 3.01 3.22 3.17 3.20 3.43 3.36 3.28 3.51 3.43 3.21 3.26 3.36 3.63 3.96 4.06 3.76 3.56 3.38 3.05 2.85 2.96 3.05 3.23 3.03 3.10 3.04 2.58 2.33 2.31 2.41 2.40 2.36 2.45 2.65 2.93 3.18 3.33
2.53 2.61 2.63 2.72 2.92 3.04 3.07 3.21 3.17 3.23 3.44 3.45 3.54 3.62 3.45 3.15 3.35 3.36 3.49 3.88 4.25 4.33 3.89 3.27 3.04 2.95 3.10 2.88 2.96 2.72 2.80 2.76 2.37 2.14 2.05 2.09 2.10 2.04 2.08 2.16 2.29 2.56 2.73
2.54 2.66 2.69 2.68 2.66 2.82 3.06 3.29 3.14 3.28 3.41 3.45 3.41 3.33 3.24 3.33 3.53 3.43 3.58 3.74 4.01 4.31 3.93 3.38 3.22 3.24 3.40 3.33 3.16 2.80 2.53 2.45 2.24 2.26 2.08 1.95 1.97 1.99 2.04 2.16 2.21 2.28 2.43
2.60 2.60 2.61 2.59 2.52 2.66 2.96 3.09 3.17 3.48 3.62 3.47 3.38 3.41 3.23 3.37 3.44 3.40 3.51 3.48 3.60 3.98 3.85 3.52 3.40 3.48 3.44 3.33 3.29 3.07 2.63 2.39 2.43 2.53 2.28 2.12 2.06 2.14 2.07 2.12 2.17 2.18 2.28
2.57 2.54 2.58 2.60 2.69 2.88 3.09 3.18 3.26 3.42 3.40 3.30 3.40 3.34 3.15 3.30 3.16 3.23 3.27 3.26 3.27 3.43 3.66 3.50 3.29 3.41 3.32 3.20 3.25 3.11 3.01 3.12 2.78 2.59 2.47 2.30 2.25 2.29 2.25 2.20 2.21 2.22 2.30
2.39 2.44 2.62 2.79 2.92 3.09 3.19 3.24 3.30 3.26 3.20 3.03 2.95 2.89 2.91 3.08 3.17 3.23 3.14 3.09 3.18 3.36 3.50 3.48 3.35 3.43 3.46 3.49 3.44 3.32 3.35 3.28 3.04 2.51 2.47 2.27 2.20 2.22 2.20 2.15 2.15 2.25 2.33
2.35 2.61 2.76 2.82 2.85 2.86 2.90 3.12 3.10 2.97 2.95 2.79 2.66 2.48 2.50 2.87 3.04 3.07 2.84 2.98 3.13 3.19 3.26 3.40 3.40 3.47 3.58 3.86 3.62 3.35 3.27 3.39 3.24 2.94 2.73 2.40 2.32 2.29 2.30 2.30 2.21 2.16 2.15
2.56 2.77 2.75 2.73 2.64 2.23 2.35 2.55 2.58 2.59 2.63 2.61 2.47 2.40 2.37 2.43 2.46 2.51 2.54 2.61 2.73 2.84 3.10 3.45 3.51 3.46 3.42 3.55 3.70 3.66 3.60 3.54 3.41 3.24 3.29 3.10 2.78 2.75 2.66 2.54 2.47 2.17 1.92
2.83 2.94 2.85 2.75 2.57 2.47 2.36 2.21 2.20 2.23 2.38 2.42 2.43 2.51 2.17 1.96 2.19 2.20 2.39 2.39 2.30 2.41 2.59 2.90 3.08 3.07 3.23 3.31 3.70 3.71 3.77 3.76 3.69 3.67 3.74 3.69 3.34 3.07 2.78 2.71 2.72 2.38 2.03
3.06 3.07 3.02 2.91 2.77 2.61 2.52 2.25 2.21 2.13 2.24 2.28 2.29 2.33 2.28 2.18 2.17 2.33 2.45 2.39 2.18 2.13 2.14 2.09 2.27 2.59 2.92 3.31 3.48 3.59 3.76 3.82 3.80 3.66 3.65 3.65 3.41 3.26 2.92 2.72 2.71 2.51 2.09
3.13 3.06 3.11 3.02 2.85 2.79 2.62 2.22 2.06 1.97 2.14 2.18 2.20 2.14 2.11 2.06 2.24 2.20 2.11 2.08 2.08 2.06 1.95 1.94 1.96 2.18 2.45 2.60 2.88 3.20 3.45 3.47 3.33 3.14 3.12 3.29 3.25 3.31 3.26 2.99 2.71 2.69 2.22
3.23 3.22 3.11 3.02 2.89 2.85 2.78 2.21 1.96 1.88 2.07 2.11 2.20 2.16 2.05 1.91 2.01 1.96 1.84 1.95 1.94 1.97 2.10 2.06 1.91 1.86 1.92 2.14 2.31 2.38 2.79 3.07 2.90 2.80 2.60 2.74 2.76 3.07 3.28 2.92 2.65 2.68 2.46